Home   Weather   Viersen   Past weeks

Flag for Germany Past Weather in Viersen, North Rhine-Westphalia, Germany — Yesterday and Last 2 Weeks

Now
66 °F

Scattered clouds.


Feels Like: 66 °F
Forecast: 61 / 71 °F
Wind: 12 mph from Northwest

Location: Monchengladbach Airport

Current Time: Jul 26, 2017 at 12:44:48 pm

Latest Report: Jul 26, 2017 at 12:20 pm


Visibility: N/A

Pressure: 29.83 "Hg

Humidity: 68%

Dew Point: 55 °F

Location of ViersenLocation

Past Weather in Viersen — Graph

°F

Viersen Temperature Yesterday

Maximum temperature yesterday: 66 °F (at 11:50 am)
Minimum temperature yesterday: 57 °F (at 5:50 am)
Average temperature yesterday: 62 °F

High & Low Weather Summary for the Past Weeks

 TemperatureHumidityPressure
High90 °F (Jul 19, 2:20 pm)100% (Jul 12, 7:50 am)30.24 "Hg (Jul 12, 7:50 am)
Low54 °F (Jul 13, 7:50 am)35% (Jul 13, 6:50 pm)29.68 "Hg (Jul 12, 12:50 pm)
Average69 °F64%29.96 "Hg
* Reported Jul 10 8:20 pm — Jul 25 8:20 pm, Viersen. Weather by CustomWeather, © 2017

Note: Actual official high and low records may vary slightly from our data, if they occured in-between our weather recording intervals... More about our weather records

Advertising

Viersen Weather History for the Previous 24 Hours

Scroll right to see more
 ConditionsComfort  
Time TempWeatherWind HumidityBarometerVisibility
8:20 pm
Tue, Jul 25
61 °FRain. Passing clouds.18 mph94%29.77 "Hg3 mi
7:50 pm61 °FLight rain. Passing clouds.17 mph94%29.77 "Hg5 mi
7:20 pm61 °FRain. Fog.20 mph94%29.77 "Hg3 mi
6:50 pm61 °FRain. Fog.13 mph94%29.77 "Hg3 mi
6:20 pm61 °FRain. Fog.14 mph94%29.77 "Hg3 mi
5:50 pm63 °FSprinkles. Partly cloudy.15 mph83%29.77 "HgN/A
5:20 pm63 °FScattered showers. Partly cloudy.14 mph83%29.77 "HgN/A
4:50 pm63 °FSprinkles. Passing clouds.16 mph83%29.77 "HgN/A
4:20 pm63 °FSprinkles. Passing clouds.15 mph83%29.80 "HgN/A
3:50 pm64 °FSprinkles. Passing clouds.9 mph78%29.77 "HgN/A
3:20 pm64 °FClear.21 mph73%29.80 "Hg10 mi
2:50 pm66 °FPartly cloudy.18 mph68%29.80 "HgN/A
2:20 pm66 °FPartly cloudy.22 mph64%29.80 "HgN/A
1:50 pm66 °FScattered showers. Partly cloudy.16 mph68%29.80 "HgN/A
1:20 pm66 °FPartly cloudy.12 mph78%29.80 "HgN/A
12:50 pm63 °FSprinkles. Passing clouds.15 mph83%29.80 "HgN/A
12:20 pm66 °FScattered clouds.18 mph68%29.80 "HgN/A
Weather by CustomWeather, © 2017

See weather overviewHow to use our weather pages